Simultaneous Nadir Overpasses (SNOs) Predictions

Prediction of SNOs between NOAA-19 and TERRA Satellite Orbit:

Table of predicted SNOs for the next 14.0 days since TLE Epoch: 1/17/2016
Index Date (NOAA-19) Time (NOAA-19) Lat,Lon (NOAA-19) SZA (NOAA-19 ) Date (TERRA) Time (TERRA) Lat,Lon (TERRA) SZA (TERRA ) Distance(km) Time Diff (sec)
1 01/18/2016 02:30:02 73.12, 147.99 93.72 01/18/2016 02:31:09 73.14, 148.06 93.75 3.39 67
2 01/18/2016 03:21:03 -73.03, -44.57 86.38 01/18/2016 03:20:39 -73.02, -44.55 86.39 1.33 24
3 01/20/2016 08:04:14 -73.11,-115.50 86.75 01/20/2016 08:04:55 -73.10,-115.46 86.76 1.79 41
4 01/20/2016 08:55:12 73.02, 51.97 93.15 01/20/2016 08:54:22 73.02, 52.01 93.15 1.37 50
5 01/22/2016 13:38:23 73.08, -18.92 92.73 01/22/2016 13:38:38 73.09, -18.91 92.74 1.23 15
6 01/22/2016 14:29:21 -72.89, 148.74 87.47 01/22/2016 14:28:09 -72.92, 148.38 87.45 12.08 72
7 01/24/2016 18:21:40 73.44, -90.51 92.57 01/24/2016 18:22:51 73.31, -89.53 92.45 34.29 71
8 01/24/2016 19:12:34 -73.09, 77.56 87.79 01/24/2016 19:12:23 -73.09, 77.65 87.79 2.92 11
9 01/26/2016 23:55:44 -73.14, 6.70 88.29 01/26/2016 23:56:39 -73.15, 6.69 88.28 0.93 55
10 01/27/2016 00:46:44 73.06, 174.12 91.63 01/27/2016 00:46:06 73.06, 174.15 91.62 1.28 38
11 01/29/2016 05:29:55 73.14, 103.19 91.14 01/29/2016 05:30:21 73.16, 103.28 91.16 3.49 26
